Charleston, WV

2:00 AM EDT on October 19, 2017 (GMT -0400)
Yeager Airport

Weather History for KCRW - June, 2013

Change the Weather History Date:

Friday, June 7, 2013

  Actual Average Record
Temperature  
Mean Temperature 65 °F 70 °F  
Max Temperature 70 °F 80 °F 97 °F (1933)
Min Temperature 59 °F 59 °F 44 °F (1958)
Degree Days  
Heating Degree Days 0 1  
Month to date heating degree days 0 7  
Since 1 June heating degree days 0 7  
Since 1 July heating degree days 4516 4472  
Cooling Degree Days 0 6  
Month to date cooling degree days 38 35  
Year to date cooling degree days 185 145  
Since 1 June cooling degree days 38 35  
Growing Degree Days 16 (Base 50)    
Moisture  
Dew Point 62 °F    
Average Humidity 80    
Maximum Humidity 93    
Minimum Humidity 66    
Precipitation  
Precipitation T in 0.15 in 1.43 in (1989)
Month to date precipitation 2.05 1.08  
Year to date precipitation 17.48 19.22  
Snow  
Snow 0.00 in - - ()
Month to date snowfall 0.0  
Since 1 September snowfall 25.3  
Snow Depth 0.00 in    
Sea Level Pressure  
Sea Level Pressure 29.78 in    
Wind  
Wind Speed 3 mph (NNW)    
Max Wind Speed 12 mph    
Max Gust Speed 16 mph    
Visibility 4 miles    
Events Rain    
T = Trace of Precipitation, MM = Missing Value Source: NWS Daily Summary

Daily Weather History Graph

Daily Weather History Graph

Search for Another Location

Airport or City:

Trip Planner

Search our weather history database for the weather conditions in past years. The results will help you decide how hot, cold, wet, or windy it might be!

Date:

Astronomy

Jun. 07, 2013 Rise Set
Actual Time 6:02 AM EDT 8:48 PM EDT
Civil Twilight 5:31 AM EDT 9:19 PM EDT
Nautical Twilight 4:51 AM EDT 9:59 PM EDT
Astronomical Twilight 4:07 AM EDT 10:43 PM EDT
Moon 5:23 AM EDT (6/7) 8:01 PM EDT (6/7)
Length of Visible Light 15h 48m
Length of Day
14h 45m
Waning Crescent, 1% of the Moon is Illuminated
Jun 7
Waning Crescent
Jun 8
New
Jun 16
First Quarter
Jun 23
Full
Jun 30
Last Quarter

Hourly Weather History & Observations

Time (EDT) Temp. Dew Point Humidity Pressure Visibility Wind Dir Wind Speed Gust Speed Precip Events Conditions
12:37 AM 68.0 °F 66.2 °F 94% 29.80 in 2.0 mi Calm Calm - N/A   Overcast
12:54 AM 68.0 °F 66.0 °F 93% 29.78 in 2.0 mi Calm Calm - N/A   Overcast
1:43 AM 68.0 °F 66.2 °F 94% 29.79 in 2.0 mi Calm Calm - N/A   Overcast
1:54 AM 68.0 °F 66.0 °F 93% 29.77 in 2.0 mi Calm Calm - N/A   Overcast
2:54 AM 68.0 °F 66.0 °F 93% 29.75 in 2.0 mi Calm Calm - N/A   Overcast
3:54 AM 68.0 °F 64.9 °F 90% 29.74 in 2.0 mi Calm Calm - N/A   Overcast
4:54 AM 66.9 °F 64.9 °F 93% 29.74 in 2.0 mi Calm Calm - 0.00 in Rain Light Rain
5:54 AM 66.9 °F 64.0 °F 90% 29.74 in 2.0 mi Calm Calm - 0.00 in   Overcast
6:54 AM 66.0 °F 64.0 °F 93% 29.75 in 2.0 mi NNE 5.8 mph - N/A   Overcast
7:54 AM 66.0 °F 63.0 °F 90% 29.75 in 0.8 mi North 8.1 mph - N/A   Overcast
8:42 AM 66.2 °F 62.6 °F 88% 29.77 in 1.0 mi Calm Calm - N/A   Overcast
8:54 AM 66.0 °F 63.0 °F 90% 29.76 in 1.0 mi Variable 3.5 mph - N/A   Overcast
9:54 AM 64.9 °F 63.0 °F 93% 29.76 in 1.0 mi NNW 4.6 mph - N/A   Overcast
10:21 AM 64.4 °F 62.6 °F 94% 29.78 in 0.8 mi Variable 5.8 mph - N/A   Overcast
10:54 AM 64.9 °F 62.1 °F 90% 29.76 in 0.8 mi NW 4.6 mph - N/A   Overcast
11:54 AM 64.9 °F 62.1 °F 90% 29.77 in 1.5 mi Variable 3.5 mph - N/A   Overcast
12:02 PM 64.4 °F 62.6 °F 94% 29.79 in 2.0 mi NNW 4.6 mph - 0.00 in   Light Drizzle
12:23 PM 64.4 °F 60.8 °F 88% 29.78 in 4.0 mi North 6.9 mph - 0.00 in   Overcast
12:54 PM 64.9 °F 61.0 °F 87% 29.76 in 4.0 mi NNW 4.6 mph - 0.00 in   Overcast
1:44 PM 66.2 °F 60.8 °F 83% 29.78 in 5.0 mi NNW 8.1 mph - N/A   Haze
1:54 PM 66.0 °F 61.0 °F 84% 29.76 in 5.0 mi NNW 4.6 mph - N/A   Haze
2:54 PM 66.0 °F 60.1 °F 81% 29.76 in 5.0 mi Variable 5.8 mph - N/A   Haze
3:54 PM 64.9 °F 59.0 °F 81% 29.77 in 5.0 mi NNW 8.1 mph - N/A   Haze
4:25 PM 66.2 °F 59.0 °F 78% 29.79 in 6.0 mi NNW 6.9 mph - N/A   Haze
4:54 PM 70.0 °F 60.1 °F 71% 29.76 in 6.0 mi Variable 3.5 mph - N/A   Haze
5:54 PM 68.0 °F 60.1 °F 76% 29.77 in 8.0 mi West 5.8 mph - N/A   Mostly Cloudy
6:54 PM 69.1 °F 57.9 °F 68% 29.79 in 10.0 mi NW 9.2 mph - N/A   Mostly Cloudy
7:54 PM 66.0 °F 57.9 °F 75% 29.81 in 10.0 mi NW 6.9 mph - N/A   Mostly Cloudy
8:54 PM 64.0 °F 55.9 °F 75% 29.83 in 9.0 mi Calm Calm - N/A   Mostly Cloudy
9:54 PM 64.0 °F 55.9 °F 75% 29.86 in 10.0 mi Calm Calm - N/A   Mostly Cloudy
10:54 PM 61.0 °F 57.9 °F 90% 29.88 in 6.0 mi Calm Calm - N/A   Scattered Clouds
11:54 PM 60.1 °F 57.0 °F 90% 29.88 in 6.0 mi Calm Calm - N/A   Partly Cloudy